Date,TemperatureHighF,TemperatureAvgF,TemperatureLowF,DewpointHighF,DewpointAvgF,DewpointLowF,HumidityHigh,HumidityAvg,HumidityLow,PressureMaxIn,PressureMinIn,WindSpeedMaxMPH,WindSpeedAvgMPH,GustSpeedMaxMPH,PrecipitationSumIn
2014-1-1,36,36,36,27,27,27,68,68,68,30.27,30.27,51,50,51,0.00
2014-1-2,36,36,36,27,27,27,68,68,68,30.27,30.27,51,50,51,0.00
2014-1-3,36,36,36,27,27,27,68,68,68,30.27,30.27,51,50,51,0.00
2014-1-4,36,36,36,27,27,27,68,68,68,30.27,30.27,51,50,51,0.00
2014-1-5,44,33,20,27,23,12,72,66,29,30.73,30.27,51,36,51,0.00
2014-1-6,49,32,19,20,14,10,73,50,20,30.35,30.11,12,2,12,0.00
2014-1-7,47,38,33,38,28,18,92,68,48,30.11,29.97,14,2,14,0.01
2014-1-8,50,39,31,37,33,29,94,80,53,30.04,29.79,23,6,23,0.13
2014-1-9,45,36,32,33,30,26,92,78,60,30.05,29.84,21,4,21,0.02
2014-1-10,47,44,41,35,30,25,67,57,44,30.08,29.87,20,8,20,0.00
2014-1-11,51,41,33,37,32,24,92,73,46,29.95,29.62,30,13,30,0.13
2014-1-12,46,38,30,34,30,24,87,73,59,30.37,29.94,24,6,24,0.00
2014-1-13,48,37,28,35,30,25,92,77,47,30.60,30.37,17,2,17,0.00
2014-1-14,59,38,26,30,26,23,90,66,30,30.63,30.53,10,2,10,0.01
2014-1-15,64,39,28,30,24,20,78,59,22,30.55,30.41,9,3,9,0.00
2014-1-16,60,37,25,25,20,16,79,54,20,30.49,30.34,7,2,7,0.00
2014-1-17,68,38,24,28,22,17,80,57,15,30.34,30.19,14,2,14,0.00
2014-1-18,64,34,20,29,22,16,87,66,24,30.29,30.15,10,2,10,0.00
2014-1-19,66,43,23,30,25,18,88,54,18,30.27,30.10,12,2,12,0.00
2014-1-20,30,26,24,26,24,23,95,94,86,30.41,30.27,9,1,9,0.00
2014-1-21,41,28,22,32,24,20,94,88,65,30.37,30.25,8,2,8,0.00
2014-1-22,51,29,18,35,25,16,95,85,53,30.33,30.23,10,2,10,0.01
2014-1-23,27,25,23,26,23,22,95,94,92,30.51,30.33,10,3,10,0.00
2014-1-24,35,25,20,26,22,18,94,88,69,30.54,30.41,12,2,12,0.00
2014-1-25,48,29,15,30,22,13,94,78,46,30.44,30.24,7,1,7,0.00
2014-1-26,59,33,23,30,22,17,94,68,25,30.24,30.07,13,3,13,0.00
2014-1-27,25,24,22,23,22,21,94,92,89,30.28,30.13,7,2,7,0.00
2014-1-28,37,31,25,36,28,22,95,90,75,30.29,29.97,8,1,8,0.23
2014-1-29,50,42,35,42,35,27,97,79,47,29.97,29.76,23,6,23,0.04
2014-1-30,44,33,25,28,24,21,90,69,41,29.90,29.83,20,4,20,0.00
2014-1-31,44,32,25,25,22,20,84,69,43,30.06,29.90,20,4,20,0.00
2014-2-1,51,30,18,26,20,15,89,69,30,30.10,29.95,13,2,13,0.00
2014-2-2,38,29,21,28,24,17,93,83,63,29.95,29.81,7,2,7,0.00
2014-2-3,39,28,16,28,22,14,93,80,46,30.01,29.85,20,4,20,0.03
2014-2-4,25,20,12,22,16,10,91,88,81,30.21,30.01,13,6,13,0.02
2014-2-5,12,8,5,10,3,0,88,79,69,30.28,30.15,13,7,13,0.00
2014-2-6,13,6,4,6,1,0,84,81,69,30.15,29.81,6,2,6,0.00
2014-2-10,33,30,27,30,28,25,93,92,90,30.15,30.13,10,6,10,0.00
2014-2-11,44,40,37,35,34,33,88,79,67,30.13,29.81,24,8,24,0.00
2014-2-12,48,42,37,41,37,34,91,83,77,29.90,29.77,26,10,26,0.06
2014-2-13,52,44,39,38,33,29,84,65,46,30.09,29.86,18,5,18,0.00
2014-2-14,44,41,35,40,37,33,93,87,76,29.97,29.78,20,6,20,0.23
2014-2-15,58,43,33,47,36,25,95,79,49,29.91,29.47,26,7,26,0.11
2014-2-16,49,39,30,28,24,18,85,57,32,30.01,29.73,24,7,24,0.00
2014-2-17,51,41,33,34,30,22,93,65,43,29.99,29.78,26,10,26,0.01
2014-2-18,52,39,31,38,32,24,93,77,50,29.98,29.72,29,9,29,0.04
2014-2-19,42,33,24,28,23,19,86,67,40,30.16,29.93,23,6,23,0.00
2014-2-20,47,38,28,31,28,23,90,69,52,30.17,30.12,24,7,24,0.00
2014-2-21,49,37,26,32,27,22,92,68,37,30.17,30.09,18,5,18,0.00
2014-2-22,53,38,24,31,26,21,89,64,39,30.10,29.97,16,4,16,0.00
2014-2-23,54,41,27,36,29,24,87,66,36,29.98,29.88,17,3,17,0.00
2014-2-24,50,39,31,43,35,30,96,88,68,30.10,29.98,12,4,12,0.00
2014-2-25,32,29,26,30,28,25,96,96,95,30.18,30.09,12,5,12,0.00
2014-2-26,29,27,26,28,26,25,96,95,94,30.10,29.73,7,1,7,0.00
2014-2-27,41,32,28,39,31,27,96,95,92,29.73,29.66,9,1,9,0.10
2014-2-28,44,33,25,38,31,24,97,94,79,29.69,29.45,12,4,12,0.04
2014-3-1,33,31,28,30,29,27,97,93,85,29.76,29.49,5,1,5,0.15
2014-3-2,51,38,28,45,34,26,97,87,62,29.84,29.68,18,3,18,0.04
2014-3-3,57,45,35,41,36,32,91,73,42,29.95,29.79,22,8,24,0.01
2014-3-4,59,44,29,40,33,28,95,68,38,30.01,29.90,18,4,18,0.01
2014-3-5,59,52,46,46,40,34,82,65,55,29.90,29.56,25,11,25,0.02
2014-3-6,52,45,36,37,33,31,82,65,48,30.11,29.67,30,10,30,0.00
2014-3-7,65,44,30,35,30,27,90,63,27,30.25,30.10,10,2,10,0.00
2014-3-8,61,49,36,43,33,26,69,55,31,30.16,29.95,22,9,24,0.00
2014-3-9,62,51,43,47,44,38,92,76,54,30.00,29.92,20,8,20,0.20
2014-3-10,49,40,33,40,32,26,92,73,49,30.36,29.93,23,8,23,0.08
2014-3-11,61,39,24,31,25,15,89,62,17,30.49,30.34,12,2,12,0.00
2014-3-12,73,46,26,29,23,15,87,50,12,30.40,30.10,23,5,23,0.00
2014-3-13,67,46,28,33,26,18,82,51,19,30.11,29.98,17,4,17,0.00
2014-3-14,57,46,37,38,30,19,80,57,32,30.30,30.02,32,7,32,0.00
2014-3-15,70,50,30,27,21,12,75,39,12,30.34,30.23,17,7,17,0.00
2014-3-16,69,53,41,37,24,4,75,40,8,30.28,29.84,33,8,33,0.00
2014-3-17,44,36,30,35,24,16,87,64,33,30.23,29.86,25,12,25,0.00
2014-3-18,54,36,21,26,22,17,86,59,30,30.24,30.10,13,3,13,0.00
2014-3-19,59,40,25,29,24,18,78,55,25,30.11,30.00,22,6,22,0.00
2014-3-20,51,38,27,29,20,11,76,52,25,30.25,30.08,17,4,17,0.00
2014-3-21,50,34,18,24,19,13,81,58,31,30.22,30.10,13,3,13,0.00
2014-3-22,64,38,18,22,16,10,83,48,14,30.25,30.10,10,2,10,0.00
2014-3-23,68,42,23,24,18,8,71,43,11,30.23,30.13,10,2,10,0.00
2014-3-24,72,47,27,34,22,14,65,43,12,30.19,29.91,13,4,13,0.00
2014-3-25,57,43,32,35,31,22,83,64,27,29.91,29.62,23,5,23,0.00
2014-3-26,50,39,32,39,32,28,91,77,50,29.66,29.50,17,4,17,0.03
2014-3-27,53,42,34,35,30,21,88,65,32,29.91,29.59,23,7,23,0.01
2014-3-28,56,46,40,40,36,32,86,71,53,29.90,29.75,23,8,23,0.04
2014-3-29,56,44,34,36,31,21,89,64,28,29.86,29.77,25,8,25,0.01
2014-3-30,50,38,28,35,29,25,91,72,42,29.93,29.86,14,2,14,0.02
2014-3-31,57,39,26,36,28,20,93,69,27,29.92,29.63,21,4,21,0.01
2014-4-1,37,35,32,35,32,27,94,88,72,29.84,29.62,17,3,17,0.27
2014-4-2,59,40,27,36,30,21,95,69,27,30.00,29.83,16,3,16,0.01
2014-4-3,56,43,30,34,29,23,85,61,30,29.99,29.87,16,5,16,0.00
2014-4-4,57,44,34,33,30,24,83,60,33,29.95,29.85,20,5,20,0.00
2014-4-5,59,45,34,39,34,30,87,67,39,30.09,29.94,12,2,12,0.00
2014-4-6,62,51,38,40,36,30,88,60,30,30.29,30.09,20,5,20,0.00
2014-4-7,83,55,33,38,33,26,85,51,15,30.29,30.09,16,3,16,0.00
2014-4-8,76,57,40,43,35,27,82,50,18,30.16,30.01,23,5,23,0.00
2014-4-9,62,48,38,42,34,24,83,61,31,30.14,30.05,20,4,20,0.00
2014-4-10,68,49,27,31,25,13,86,46,14,30.14,30.02,13,4,13,0.00
2014-4-11,74,52,33,33,26,17,74,41,17,30.06,29.91,13,3,13,0.00
2014-4-12,63,47,30,31,26,22,76,47,23,30.08,29.91,15,4,15,0.00
2014-4-13,65,46,29,31,25,21,81,48,22,30.26,30.07,14,3,16,0.00
2014-4-14,77,51,29,37,25,18,70,42,12,30.22,30.00,18,5,18,0.00
2014-4-15,64,48,39,37,29,24,70,50,25,30.14,30.03,20,7,20,0.00
2014-4-16,69,49,33,38,32,27,81,55,26,30.08,29.94,14,3,14,0.00
2014-4-17,53,47,42,46,39,34,91,73,60,29.96,29.83,8,2,8,0.06
2014-4-18,67,47,30,34,24,10,84,47,14,30.05,29.89,13,3,13,0.00
2014-4-19,65,46,33,35,28,19,78,51,20,30.19,29.82,25,7,25,0.00
2014-4-20,73,49,29,32,28,22,87,51,18,30.26,30.09,13,3,13,0.00
2014-4-21,68,50,39,41,34,29,89,58,29,30.09,29.76,23,6,23,0.12
2014-4-22,51,43,37,38,29,16,92,62,27,29.92,29.77,25,8,25,0.03
2014-4-23,55,45,37,39,33,27,72,62,47,29.93,29.79,20,10,20,0.00
2014-4-24,59,48,40,42,35,23,87,62,26,29.86,29.76,26,10,26,0.07
2014-4-25,55,41,34,36,32,26,93,72,37,29.83,29.72,18,4,18,0.09
2014-4-26,54,41,26,34,25,19,88,57,27,29.80,29.71,18,6,18,0.01
2014-4-27,50,41,34,34,29,18,84,63,28,30.09,29.70,25,8,25,0.00
2014-4-28,68,46,26,29,23,14,84,48,16,30.35,30.10,15,3,15,0.00
2014-4-29,69,52,30,35,29,24,78,45,23,30.50,30.34,15,4,15,0.00
2014-4-30,87,60,34,37,27,5,75,37,5,30.46,30.19,17,5,17,0.00
2014-5-1,92,64,37,38,29,9,76,35,5,30.25,30.03,12,3,12,0.00
2014-5-2,80,62,44,44,39,27,70,46,16,30.11,29.87,17,5,17,0.00
2014-5-3,67,53,44,43,36,31,84,56,28,29.92,29.76,16,4,16,0.00
2014-5-4,64,50,43,46,36,31,83,61,40,29.91,29.79,24,6,24,0.04
2014-5-5,60,46,37,37,33,25,89,64,29,29.99,29.90,23,5,23,0.00
2014-5-6,60,45,29,35,31,26,89,61,35,29.99,29.91,22,6,24,0.00
2014-5-7,74,50,29,36,30,23,87,53,17,29.98,29.83,15,3,15,0.00
2014-5-8,60,50,43,44,39,34,87,66,49,29.88,29.71,20,5,20,0.03
2014-5-9,57,46,37,41,34,27,84,64,33,30.01,29.80,25,7,25,0.01
2014-5-10,53,43,34,41,33,26,91,70,38,30.20,30.00,20,5,20,0.05
2014-5-11,71,48,28,35,30,25,89,56,24,30.27,30.19,14,3,14,0.00
2014-5-12,72,52,31,35,29,17,83,47,13,30.36,30.26,14,4,14,0.00
2014-5-13,78,58,34,35,30,26,70,38,18,30.40,30.28,14,4,14,0.00
2014-5-14,88,64,40,40,34,28,66,36,12,30.36,30.16,14,3,14,0.00
2014-5-15,90,68,46,44,38,24,65,37,10,30.19,30.00,20,5,20,0.00
2014-5-16,78,62,51,41,34,23,63,39,15,30.07,29.99,26,6,26,0.00
2014-5-17,71,56,40,41,35,28,78,49,21,30.05,29.83,20,6,20,0.00
2014-5-18,62,51,44,42,38,34,89,65,39,29.92,29.83,22,6,22,0.17
2014-5-19,67,53,41,41,38,35,88,60,32,30.00,29.89,15,4,15,0.00
2014-5-20,72,56,38,41,37,29,87,54,21,30.06,29.98,17,5,17,0.00
2014-5-21,77,60,41,42,36,23,87,46,14,30.08,29.99,17,4,20,0.00
2014-5-22,89,65,43,46,38,31,78,42,14,30.09,29.97,13,3,13,0.00
2014-5-23,72,60,51,54,47,43,82,62,38,30.11,30.02,22,5,22,0.02
2014-5-24,80,59,41,46,41,33,91,57,20,30.14,30.02,20,4,20,0.00
2014-5-25,80,61,43,44,39,30,81,49,20,30.09,29.92,21,5,21,0.00
2014-5-26,69,59,48,44,38,31,74,50,28,30.10,30.01,20,6,20,0.00
2014-5-27,66,52,39,40,35,29,84,55,29,30.10,30.00,22,6,22,0.00
2014-5-28,59,48,40,35,33,27,77,58,35,30.19,30.05,25,8,25,0.00
2014-5-29,73,52,31,38,30,20,87,50,15,30.20,30.03,15,4,15,0.00
2014-5-30,78,59,36,43,36,30,79,46,20,30.07,29.85,15,4,15,0.00
2014-5-31,80,61,44,44,39,32,84,49,18,30.04,29.94,16,5,17,0.00
2014-6-1,86,62,42,43,39,32,83,47,19,30.06,29.88,15,4,15,0.00
2014-6-2,84,64,44,43,37,34,71,41,19,29.93,29.79,20,5,20,0.00
2014-6-3,79,62,48,44,35,20,74,42,12,30.03,29.87,17,6,17,0.00
2014-6-4,86,62,37,38,27,9,73,34,6,30.08,29.97,15,4,15,0.00
2014-6-5,81,62,40,36,31,26,69,35,17,30.09,29.96,16,5,16,0.00
2014-6-6,79,62,40,36,28,21,63,32,13,30.07,29.99,15,4,15,0.00
2014-6-7,79,63,43,41,34,26,60,37,22,30.14,30.03,20,5,20,0.00
2014-6-8,86,65,42,43,38,33,79,42,16,30.19,30.01,16,4,16,0.00
2014-6-9,81,64,45,44,34,14,77,39,10,30.09,29.96,18,5,18,0.00
2014-6-10,78,60,40,38,32,25,77,39,17,30.05,29.97,20,5,20,0.00
2014-6-11,82,62,38,41,33,21,79,41,12,30.04,29.80,14,4,14,0.00
2014-6-12,71,59,48,44,39,33,71,50,27,29.91,29.78,23,8,23,0.00
2014-6-13,62,51,44,41,37,34,70,59,42,30.09,29.91,25,10,25,0.00
2014-6-14,71,52,37,38,35,30,82,55,27,30.09,29.95,15,4,15,0.00
2014-6-15,66,52,42,40,37,34,75,58,35,29.96,29.80,20,7,20,0.00
2014-6-16,59,48,39,38,33,29,76,57,33,29.97,29.82,24,10,24,0.00
2014-6-17,62,48,34,39,35,29,84,64,39,30.09,29.96,20,6,20,0.01
2014-6-18,82,58,35,43,38,31,89,54,23,30.09,29.94,16,4,17,0.00
2014-6-19,84,64,42,46,40,30,80,48,17,30.05,29.94,24,5,24,0.00
2014-6-20,74,61,48,46,41,34,80,53,27,30.09,30.00,20,5,20,0.00
2014-6-21,75,59,38,39,35,29,86,47,21,30.08,29.95,20,4,20,0.00
2014-6-22,86,65,42,38,32,18,69,34,10,30.08,29.95,12,3,12,0.00
2014-6-23,86,67,50,46,39,31,59,39,17,30.07,29.93,23,7,24,0.00
2014-6-24,78,63,50,49,46,43,88,58,31,30.10,30.01,14,4,14,0.02
2014-6-25,68,58,47,54,49,42,92,74,45,30.04,29.84,10,2,10,0.25
2014-6-26,72,59,52,54,49,45,95,71,41,29.87,29.82,20,4,20,0.01
2014-6-27,72,60,51,53,48,42,88,66,38,29.95,29.82,20,7,20,0.04
2014-6-28,75,59,46,46,43,41,85,58,31,30.05,29.94,20,5,20,0.00
2014-6-29,79,60,43,45,41,30,87,55,19,30.17,30.05,14,4,14,0.00
2014-6-30,83,65,42,45,41,35,87,48,21,30.20,30.03,15,5,15,0.00
2014-7-1,92,73,50,47,42,38,68,37,19,30.05,29.83,14,5,14,0.00
2014-7-2,91,76,65,58,49,43,69,41,21,29.97,29.83,16,5,18,0.00
2014-7-3,88,71,55,54,47,37,83,49,19,30.04,29.93,16,4,20,0.00
2014-7-4,89,69,52,48,43,28,79,44,12,30.03,29.91,20,4,20,0.00
2014-7-5,93,73,53,44,40,31,65,35,13,30.12,30.03,14,4,15,0.00
2014-7-6,93,74,54,50,44,38,67,38,15,30.18,30.06,17,5,17,0.00
2014-7-7,96,75,54,51,46,42,70,40,17,30.15,29.98,12,4,12,0.00
2014-7-8,100,78,58,60,52,46,71,43,19,30.05,29.93,18,3,18,0.00
2014-7-9,96,80,64,60,46,29,75,36,13,30.00,29.87,17,4,17,0.00
2014-7-10,97,76,52,49,37,24,72,33,8,29.95,29.83,20,4,20,0.00
2014-7-11,92,73,54,48,41,27,61,35,12,30.07,29.92,13,3,14,0.00
2014-7-12,103,78,54,57,44,37,72,37,12,30.15,30.04,17,4,17,0.00
2014-7-13,89,75,60,50,47,42,60,39,21,30.14,30.01,20,5,20,0.00
2014-7-14,95,77,58,51,46,40,65,37,15,30.12,30.03,16,4,16,0.00
2014-7-15,98,77,55,50,44,38,65,34,15,30.15,29.99,20,3,20,0.00
2014-7-16,103,80,59,49,44,37,57,31,11,30.07,29.92,20,5,20,0.00
2014-7-17,90,74,57,47,41,33,64,34,17,30.04,29.93,23,6,23,0.00
2014-7-18,91,70,47,48,37,16,63,35,9,30.07,30.00,20,4,20,0.00
2014-7-19,92,73,52,49,45,36,70,41,18,30.11,29.99,15,4,15,0.00
2014-7-20,89,70,54,53,44,29,68,43,21,29.99,29.84,20,7,20,0.00
2014-7-21,81,66,52,47,40,28,69,42,16,30.05,29.91,14,4,14,0.00
2014-7-22,82,68,58,62,53,45,86,60,37,30.08,29.96,14,5,14,0.04
2014-7-23,67,56,44,55,48,38,91,76,55,30.16,30.00,22,5,22,0.06
2014-7-24,79,56,36,45,40,33,90,58,24,30.25,30.13,14,4,14,0.11
2014-7-25,86,63,40,49,40,26,89,51,15,30.16,30.01,12,3,12,0.00
2014-7-26,91,70,48,49,42,31,84,44,16,30.15,30.05,13,4,13,0.00
2014-7-27,86,71,52,46,43,40,67,39,23,30.16,30.08,12,3,13,0.00
2014-7-28,96,77,53,53,44,38,63,34,15,30.15,30.05,20,3,20,0.00
2014-7-29,98,77,60,53,46,31,65,38,10,30.15,30.05,29,4,32,0.00
2014-7-30,97,77,58,48,43,38,60,33,15,30.14,30.03,18,3,18,0.00
2014-7-31,99,80,64,48,43,36,51,30,13,30.11,29.97,23,4,23,0.00
2014-8-1,98,78,61,58,49,38,80,40,15,30.10,29.93,13,4,13,0.23
2014-8-2,97,75,59,61,49,43,70,44,18,30.03,29.93,16,3,16,0.01
2014-8-3,87,72,55,57,51,46,86,53,27,30.08,29.94,12,3,12,0.00
2014-8-4,93,77,60,58,49,45,61,39,21,30.01,29.90,13,3,13,0.00
2014-8-5,90,75,60,56,48,31,77,43,15,30.07,29.98,15,4,15,0.00
2014-8-6,92,71,49,52,42,36,69,39,16,30.13,30.01,14,4,14,0.00
2014-8-7,90,70,51,51,44,31,83,45,16,30.10,29.96,17,4,17,0.00
2014-8-8,87,68,49,42,37,33,64,36,18,30.08,29.99,15,4,15,0.00
2014-8-9,87,67,48,41,37,31,67,38,18,30.13,30.02,14,4,14,0.00
2014-8-10,93,74,53,57,40,31,66,32,17,30.14,29.97,28,5,28,0.01
2014-8-11,102,75,60,57,51,32,77,49,11,30.10,29.90,20,4,20,0.05
2014-8-12,80,66,56,58,53,48,88,66,35,30.00,29.90,16,4,16,0.11
2014-8-13,77,61,52,55,50,44,89,71,36,30.03,29.93,20,4,20,0.12
2014-8-14,77,60,53,57,52,46,91,76,36,30.03,29.98,12,2,12,0.02
2014-8-15,86,65,52,55,52,49,94,66,31,30.08,30.01,9,2,10,0.01
2014-8-16,92,70,50,55,50,46,88,56,24,30.13,30.03,12,3,12,0.28
2014-8-17,91,72,53,54,49,41,80,50,19,30.12,29.99,13,3,13,0.00
2014-8-18,90,72,55,54,49,44,79,48,23,30.03,29.84,14,4,14,0.00
2014-8-19,86,71,58,56,50,41,71,50,23,29.88,29.79,22,6,22,0.00
2014-8-20,78,66,54,52,46,38,81,52,28,29.98,29.86,20,7,20,0.00
2014-8-21,89,63,42,45,39,25,87,48,12,30.05,29.94,18,4,18,0.00
2014-8-22,76,62,45,47,41,35,77,50,24,30.10,29.97,15,4,15,0.00
2014-8-23,78,62,47,48,44,41,82,55,30,30.17,30.04,17,3,17,0.00
2014-8-24,84,62,45,49,41,37,74,51,21,30.05,29.85,21,4,21,0.05
2014-8-25,78,60,46,50,46,42,87,63,29,30.05,29.97,20,4,20,0.00
2014-8-27,98,82,67,51,47,41,55,32,16,30.09,30.01,17,6,17,0.00
2014-8-28,92,70,52,52,46,36,78,47,17,30.12,30.01,17,4,17,0.00
2014-8-29,84,66,48,49,44,32,76,50,18,30.04,29.90,22,5,22,0.00
2014-8-30,72,60,52,53,46,44,81,61,40,30.00,29.93,24,5,24,0.02
2014-8-31,73,59,48,45,42,38,82,57,31,30.08,30.00,16,4,16,0.00
2014-9-1,87,59,41,44,39,35,83,55,19,30.11,29.99,14,3,14,0.00
2014-9-2,82,69,55,48,43,32,71,42,17,29.96,29.82,27,11,28,0.00
2014-9-3,74,58,46,42,35,27,67,45,23,30.06,29.93,15,5,15,0.00
2014-9-4,74,56,36,41,36,30,80,51,26,30.13,30.00,15,4,15,0.00
2014-9-5,79,61,39,41,36,31,73,43,18,30.17,30.04,16,4,16,0.00
2014-9-6,83,64,40,37,33,28,63,35,17,30.12,29.92,15,4,15,0.00
2014-9-7,86,66,45,38,30,20,56,31,9,29.96,29.84,10,2,10,0.00
2014-9-8,88,64,45,44,30,22,62,31,10,29.95,29.82,18,5,20,0.00
2014-9-9,73,59,45,46,40,37,76,52,28,30.13,29.95,16,4,17,0.03
2014-9-10,74,57,39,43,38,31,79,52,25,30.19,30.07,13,3,13,0.00
2014-9-11,67,54,42,31,27,22,51,37,21,30.32,30.14,16,6,16,0.00
2014-9-12,77,55,32,32,26,22,66,38,16,30.17,29.94,16,4,16,0.00
2014-9-13,76,57,37,32,27,21,55,33,19,30.05,29.90,12,3,12,0.00
2014-9-14,79,61,40,35,29,23,54,32,18,30.00,29.90,14,4,14,0.00
2014-9-15,84,65,44,40,33,27,54,32,18,30.01,29.86,13,3,13,0.00
2014-9-16,90,69,50,42,33,23,48,31,10,29.93,29.81,20,4,20,0.00
2014-9-17,92,68,54,42,37,26,55,35,10,29.88,29.67,17,4,18,0.00
2014-9-18,77,64,55,57,48,38,83,59,38,30.01,29.74,20,4,20,0.04
2014-9-19,83,63,46,51,47,43,92,60,27,30.12,30.01,10,2,12,0.00
2014-9-20,83,65,46,50,45,41,82,52,29,30.13,29.97,16,4,16,0.00
2014-9-21,87,68,48,53,46,40,75,48,25,30.03,29.88,12,3,12,0.00
2014-9-22,83,70,59,53,49,42,71,49,28,30.01,29.90,16,3,16,0.00
2014-9-23,78,66,55,48,45,37,72,49,30,29.96,29.79,16,4,16,0.00
2014-9-24,69,58,51,55,49,37,93,75,31,29.96,29.80,13,3,13,0.29
2014-9-25,69,55,46,48,45,40,90,72,40,29.97,29.84,17,4,17,0.14
2014-9-26,70,53,39,44,40,36,93,66,31,30.07,29.96,10,2,10,0.12
2014-9-27,66,54,45,48,44,42,88,69,44,30.07,29.98,18,5,18,0.00
2014-9-28,70,58,50,47,44,43,77,63,42,30.01,29.93,14,4,14,0.00
2014-9-29,72,57,43,48,43,36,91,63,29,30.00,29.89,22,6,22,0.00
2014-9-30,64,52,44,40,38,35,76,60,38,30.15,30.00,21,7,21,0.00
2014-10-1,75,50,35,39,33,22,88,58,18,30.21,30.10,8,2,8,0.00
2014-10-2,71,52,37,34,30,21,74,46,20,30.30,30.15,10,3,10,0.00
2014-10-3,79,56,36,40,34,28,73,47,21,30.35,30.21,9,3,9,0.00
2014-10-4,78,51,41,36,33,31,67,54,21,30.27,30.24,9,2,9,0.00
2014-10-5,91,75,57,46,38,29,54,31,11,30.09,30.00,3,1,6,0.00
2014-10-6,88,66,47,44,40,36,71,43,17,30.06,29.90,5,1,8,0.00
2014-10-7,90,67,48,43,37,28,63,38,13,30.09,29.89,14,2,14,0.00
2014-10-8,83,60,44,43,36,26,77,45,15,30.02,29.93,12,3,12,0.00
2014-10-9,76,56,38,37,33,29,70,45,22,30.08,30.00,9,2,9,0.00
2014-10-10,82,59,40,42,34,27,63,41,18,30.12,30.04,17,3,17,0.00
2014-10-11,65,55,48,53,39,35,80,56,37,30.23,30.06,31,7,31,0.01
2014-10-12,75,52,37,38,33,23,83,52,16,30.29,30.09,14,3,14,0.00
2014-10-13,79,57,40,35,27,21,57,34,13,30.10,29.78,20,4,20,0.00
2014-10-14,63,55,47,44,37,23,87,53,26,29.89,29.60,14,4,14,0.00
2014-10-15,60,50,45,45,37,30,92,64,34,30.04,29.56,20,6,20,0.10
2014-10-16,72,53,43,37,35,31,73,54,23,30.04,29.88,12,3,12,0.00
2014-10-17,63,53,45,48,41,37,76,65,43,29.95,29.83,20,4,20,0.02
2014-10-18,79,59,47,46,44,41,86,62,28,30.03,29.91,13,4,13,0.04
2014-10-19,76,57,40,42,39,35,89,55,25,29.91,29.74,20,5,20,0.00
2014-10-20,64,51,42,47,42,38,93,72,46,29.89,29.76,17,4,17,0.10
2014-10-21,62,47,36,39,36,34,93,70,41,30.02,29.88,15,4,15,0.00
2014-10-22,62,54,47,45,40,36,73,59,46,29.94,29.77,29,10,29,0.00
2014-10-23,58,51,46,48,42,36,89,72,51,30.00,29.77,12,5,12,0.11
2014-10-24,55,47,45,47,44,40,96,87,74,30.02,29.79,10,3,10,0.04
2014-10-25,64,51,42,46,40,35,96,71,37,29.92,29.50,34,9,35,0.01
2014-10-26,51,43,35,37,34,30,84,70,49,30.12,29.92,24,4,24,0.00
2014-10-27,60,43,31,35,31,28,90,65,36,30.14,30.02,12,2,12,0.00
2014-10-28,62,50,41,46,38,31,90,64,40,30.06,29.96,20,8,20,0.00
2014-10-29,60,49,37,46,41,34,94,76,51,30.17,30.06,8,1,8,0.02
2014-10-30,66,51,46,52,46,43,95,84,50,30.07,29.78,8,2,8,0.08
2014-10-31,50,46,40,46,41,36,94,83,67,29.82,29.70,17,3,17,0.14
2014-11-1,52,41,34,37,34,30,92,75,48,30.00,29.72,23,5,23,0.00
2014-11-2,54,42,30,40,34,27,91,74,51,30.17,30.00,15,4,15,0.08
2014-11-3,59,48,40,43,40,37,92,74,53,30.22,30.14,15,4,15,0.01
2014-11-4,60,51,43,47,43,39,93,74,62,30.30,30.11,18,6,18,0.00
2014-11-5,67,54,42,49,44,40,94,71,50,30.31,30.08,13,4,13,0.00
2014-11-6,65,55,42,44,41,36,77,61,40,30.27,30.00,21,7,21,0.00
2014-11-7,63,43,32,38,33,29,91,72,38,30.39,30.27,7,2,7,0.00
2014-11-8,76,48,30,42,35,27,91,65,28,30.33,30.08,13,2,13,0.00
2014-11-9,65,49,36,46,36,28,81,63,33,30.07,29.83,31,8,31,0.00
2014-11-10,50,37,28,33,27,22,87,69,46,30.11,29.97,12,2,12,0.00
2014-11-11,36,26,17,25,16,5,85,67,55,30.26,30.05,20,7,20,0.00
2014-11-12,28,19,10,10,7,3,73,59,46,30.30,30.08,12,4,12,0.00
2014-11-13,22,18,16,17,15,11,90,86,71,30.08,29.91,6,1,6,0.53
2014-11-14,23,19,7,19,15,3,90,86,81,30.19,29.90,7,2,7,0.62
2014-11-15,25,10,-3,16,5,-7,89,81,64,30.51,30.18,5,1,5,0.00
2014-11-16,24,8,-5,16,3,-9,88,81,70,30.52,30.41,4,1,4,0.00
2014-11-17,28,11,-3,19,6,-7,86,80,64,30.46,30.27,5,1,5,0.00
2014-11-18,34,18,3,23,13,-1,87,79,65,30.27,30.13,5,0,5,0.00
2014-11-19,30,23,18,22,18,14,87,81,72,30.14,29.92,8,1,8,0.00
2014-11-20,46,34,21,36,30,18,93,84,66,30.01,29.93,10,2,10,0.00
2014-11-21,45,40,31,42,35,29,94,84,71,29.96,29.52,26,8,26,0.27
2014-11-22,44,39,30,42,33,26,93,81,63,30.19,29.62,23,6,23,0.09
2014-11-23,52,36,25,34,28,23,93,74,42,30.29,30.19,14,2,14,0.00
2014-11-24,50,40,29,39,32,26,90,72,47,30.37,30.23,14,5,14,0.00
2014-11-25,58,51,39,44,41,35,88,69,56,30.32,30.24,24,7,24,0.00
2014-11-26,60,44,32,41,35,29,93,72,46,30.30,30.03,15,4,15,0.00
2014-11-27,55,51,48,43,38,30,82,62,38,30.04,29.84,24,13,24,0.06
2014-11-28,51,46,41,39,37,32,87,71,52,29.85,29.48,26,12,26,0.10
2014-11-29,44,33,22,37,26,19,89,76,49,29.99,29.50,21,5,21,0.05
2014-11-30,28,21,17,22,18,11,93,85,76,30.12,29.99,11,2,11,0.00
2014-12-1,38,28,15,37,26,10,95,89,78,30.10,30.02,7,1,7,0.14
2014-12-2,33,25,20,30,24,18,95,94,93,30.07,29.96,12,3,12,0.00
2014-12-3,25,22,20,24,20,18,95,94,93,29.96,29.80,4,1,4,0.10
2014-12-4,36,29,25,35,28,24,96,95,94,29.99,29.81,7,0,7,0.04
2014-12-5,31,28,25,30,27,24,97,96,95,30.05,29.89,7,2,7,0.01
2014-12-6,52,37,28,40,32,27,97,82,53,30.23,29.89,13,3,13,0.04
2014-12-7,55,37,29,39,32,27,95,84,53,30.22,30.08,12,3,12,0.00
2014-12-8,55,41,29,47,37,28,97,84,66,30.13,30.02,12,2,12,0.00
2014-12-9,57,51,48,45,42,40,83,72,62,30.04,29.88,20,8,20,0.00
2014-12-10,61,51,44,43,38,34,81,62,43,29.88,29.46,28,10,28,0.00
2014-12-11,55,48,42,41,38,35,86,69,52,29.60,29.20,41,14,41,0.03
2014-12-12,45,38,29,40,35,26,94,87,74,29.99,29.58,7,0,7,0.13
2014-12-13,51,34,25,33,27,23,93,79,45,30.16,30.00,6,1,6,0.00
2014-12-14,46,31,23,30,25,21,95,80,46,30.15,29.99,18,3,18,0.00
2014-12-15,31,28,27,29,27,26,96,95,92,30.04,29.84,8,1,8,0.01
2014-12-16,33,30,27,31,28,26,96,95,90,29.86,29.80,6,1,6,0.00
2014-12-17,36,32,29,35,31,28,97,95,89,29.94,29.80,6,1,6,0.00
2014-12-18,48,40,32,37,34,30,95,78,61,29.97,29.85,16,6,16,0.00
2014-12-19,47,41,37,36,34,30,87,76,59,29.98,29.85,14,3,14,0.00
2014-12-20,47,43,38,44,38,33,90,83,75,29.91,29.71,24,11,24,0.19
2014-12-21,49,45,40,46,42,38,93,89,84,30.12,29.76,15,2,15,0.13
2014-12-22,54,43,34,41,37,32,95,79,58,30.32,30.08,15,2,15,0.00
2014-12-23,58,43,33,44,37,30,91,80,58,30.31,29.99,8,2,8,0.00
2014-12-24,46,36,30,38,32,25,95,84,72,29.99,29.66,21,6,21,0.23
2014-12-25,41,35,30,30,27,24,85,74,55,30.17,29.95,14,4,14,0.02
2014-12-26,46,30,22,30,24,19,91,78,47,30.29,30.15,7,1,7,0.00
2014-12-27,40,31,23,32,25,19,85,77,59,30.28,30.07,15,4,15,0.00
2014-12-28,39,34,28,32,26,22,86,74,58,30.16,30.05,21,7,21,0.00
2014-12-29,29,24,14,28,20,8,94,86,74,30.52,30.04,20,6,20,0.15
2014-12-30,15,8,-4,8,2,-9,84,77,63,30.70,30.52,12,4,12,0.00
2014-12-31,21,7,-4,10,0,-9,84,76,57,30.63,30.35,9,1,9,0.00
2015-1-1,25,12,0,13,4,-4,84,73,51,30.35,30.20,7,1,7,0.00
2015-1-2,40,24,8,28,18,4,86,77,58,30.21,30.02,12,2,12,0.00